sat.trackr.live / text

‹ back to catalog

STARLINK-4742

NORAD 53795 · 2022-111Y

PAYLOAD ACTIVE UNKNOWN

§ Identity

Operator
Country
US
Launch date
2022-09-11
Launch site
AFETR
Launch vehicle
Mass (kg)
RCS (m²)

Purposes: comms

External: N2YO · Heavens-Above · Gunter

§ Orbital elements

Epoch: 2026-05-24T19:39:58.507488Z

Period
95.44 min
Inclination
53.2142°
Eccentricity
0.0001238
Mean motion
15.08837130 rev/d
Perigee alt
538.9 km
Apogee alt
540.6 km
Semi-major
6,917.9 km
B*
3.3502e-5
RAAN
292.0428°
Arg perigee
82.8176°
Mean anomaly
277.2957°
Rev number
20,518

§ Raw data

STARLINK-47421 53795U 22111Y   26144.81942717  .00000245  00000+0  33502-4 0  99992 53795  53.2142 292.0428 0001238  82.8176 277.2957 15.08837130205182

JSON: /api/v1/satellites/53795 · /tle

For live sub-satellite position, see the globe view (requires WebGL).

§ Visibility from observer

Set your observer location to see the next 7 days of passes ≥ 10°. The values pass through the URL so the page stays shareable.

No JS? Fill the form by hand. The geolocation button needs JavaScript.